Regional Weather Roundup
Issued by NWS Boston, MA

Home | Current Version | Previous Version | Text Only | Print | Product List | Glossary On
Versions: 1 2 3 4 5 6 7 8 9 10 11 12 13 14 15 16 17 18 19 20 21 22 23 24 25 26 27 28 29 30 31 32 33 34 35 36 37 38 39 40 41 42 43 44 45 46 47 48 49 50
000
ASUS41 KBOX 300310
RWRBOX

REGIONAL WEATHER ROUNDUP
NATIONAL WEATHER SERVICE TAUNTON MA
1000 PM EST THU JAN 29 2015

NOTE:  "FAIR" INDICATES FEW OR NO CLOUDS BELOW 12,000 FEET WITH NO
SIGNIFICANT WEATHER AND/OR OBSTRUCTIONS TO VISIBILITY.  THE FOLLOWING
OBSERVATION LOCATIONS DO NOT REPORT PRESENT WEATHER...PROVINCETOWN...
SMITHFIELD...BLOCK ISLAND...KEENE...AND OXFORD.

MAZALL-300400-
EASTERN MASSACHUSETTS

CITY           SKY/WX    TMP DP  RH WIND       PRES   REMARKS
BOSTON         CLOUDY    28  20  71 S7        30.11F WCI  21
BEVERLY        CLOUDY    29  20  69 SW8       30.09F WCI  21
LAWRENCE       CLOUDY    29  19  66 VRB5      30.10F WCI  24
BEDFORD        CLOUDY    28  19  69 S8        30.09S WCI  20
BLUE HILL        N/A     25  18  74 S12       30.06R WCI  14
NORWOOD        CLOUDY    26  18  71 S3        30.11S
MARSHFIELD     MOCLDY    27  23  86 CALM      30.12S
PLYMOUTH       CLOUDY    25  20  81 CALM      30.11F
TAUNTON        CLOUDY    26  20  77 CALM      30.10S
NEW BEDFORD    CLOUDY    27  21  78 CALM      30.10S
$$

MAZALL-300400-
CAPE COD AND THE ISLANDS

CITY           SKY/WX    TMP DP  RH WIND       PRES   REMARKS
FALMOUTH       CLOUDY    21  18  86 CALM      30.11S
HYANNIS        MOCLDY    22  20  92 CALM      30.10F
CHATHAM        MOCLDY    25  23  92 CALM      30.12F
PROVINCETOWN   MOCLDY    27  19  74 SE5       30.10F WCI  21
NANTUCKET      MOCLDY    28  24  85 CALM      30.12F
MARTHAS VNYRD  CLOUDY    23  17  78 CALM      30.12F
$$

MAZALL-300400-
CENTRAL AND WESTERN MASSACHUSETTS

CITY           SKY/WX    TMP DP  RH WIND       PRES   REMARKS
WORCESTER      CLOUDY    25  19  78 S8        30.02F WCI  16
FITCHBURG      CLOUDY    29  15  56 SE3       30.06F
ORANGE         CLOUDY    27   9  46 CALM      30.03F
SPRINGFIELD    FLURRIES  27  21  80 S2        30.04F
WESTFIELD      CLOUDY    29  20  69 S7        30.04F WCI  22
NORTH ADAMS    CLOUDY    29  10  45 E9G21     29.99S WCI  20
PITTSFIELD     CLOUDY    26  14  60 SW7       29.96S WCI  18
$$

RIZALL-300400-
RHODE ISLAND

CITY           SKY/WX    TMP DP  RH WIND       PRES   REMARKS
PROVIDENCE     CLOUDY    27  19  72 E5        30.10F WCI  22
NEWPORT        CLOUDY    32  26  78 S8        30.09F WCI  25
BLOCK ISLAND   CLOUDY    34  27  75 S9        30.08F WCI  26
SMITHFIELD     CLOUDY    27  16  63 CALM      30.06F
WESTERLY       CLOUDY    34  28  79 SE9       30.09F WCI  27
$$

CTZALL-300400-
CONNECTICUT

CITY           SKY/WX    TMP DP  RH WIND       PRES   REMARKS
BRADLEY INTL   CLOUDY    29  22  75 S6        30.05F WCI  23
HARTFORD       CLOUDY    29  22  75 CALM      30.07F
BRIDGEPORT     CLOUDY    32  28  85 SE3       30.07F
DANBURY        CLOUDY    29  20  69 SE6       30.03F WCI  23
GROTON         CLOUDY    34  29  82 SE9       30.07F WCI  27
NEW HAVEN      CLOUDY    33  27  78 CALM      30.07F
CHESTER        CLOUDY    32  28  86 S3        30.05F
MERIDEN        CLOUDY    30  23  75 CALM      30.07F
WILLIMANTIC    CLOUDY    29  21  72 CALM      30.07F
OXFORD         CLOUDY    28  19  69 S5        30.03F WCI  23
$$

MEZ002-015-021-024-NHZ003-005-008-011-012-014-VTZ005-008-300400-
NORTHERN NEW ENGLAND

CITY           SKY/WX    TMP DP  RH WIND       PRES   REMARKS
PORTLAND ME    MOCLDY    21  13  71 CALM      30.09F
BANGOR ME      PTCLDY     2  -1  88 CALM      30.10F
CONCORD NH     CLOUDY    28  19  69 SE5       30.06F WCI  23
MANCHESTER NH  CLOUDY    29  20  69 S8        30.05F WCI  21
NASHUA NH      MOCLDY    28  20  72 SE6       30.08F WCI  22
PORTSMOUTH NH  CLOUDY    24  19  80 W5        30.06F WCI  18
JAFFREY NH     CLOUDY    27  11  51 S6        30.01F WCI  20
KEENE NH       CLOUDY    28  10  47 CALM      30.03F
BURLINGTON VT  CLOUDY    31   8  38 S17G28    29.88F WCI  19
MT. WASHINGTON NOT AVBL
$$

NYZ052-076-300400-
EASTERN NEW YORK

CITY           SKY/WX    TMP DP  RH WIND       PRES   REMARKS
ALBANY         LGT SNOW  29  15  56 S17G26    29.98F WCI  17
NEW YORK CITY  CLOUDY    34  26  72 SW8       30.06S WCI  27
$$

ANZALL-300400-
MARINE OBSERVATIONS

STATION/POSITION TIME  TEMP    WIND        PRES    VSBY  WAVE
                       AIR SEA DIR/SP/G                  HT/PER
                 (UTC) (F)     (DEG/KT/KT) (MB)    (MI)  (FT/S)
BOSTON BUOY      0250   32 40  190/ 10/ 12 1019.2F         2/ 6
BUZZARDS BAY     0200          170/ 12/ 13 1020.4F
NANTUCKET SOUND  NOT AVBL
MASS BAY-STELLWA 0204   32 41  180/ 10/ 14   N/A    1 7/8  1/ 2
ISLE OF SHOALS   0300   34     190/ 13/ 15 1017.6F
S OF BLOCK IS    0208      42                N/A           2/10
$$

......................KEY.........................
  SKY/WX - SKY CONDITION/PRESENT WEATHER
  TMP    - TEMPERATURE IN FAHRENHEIT
  DWPT   - DEWPOINT IN FAHRENHEIT
  RH     - RELATIVE HUMIDITY IN PERCENT
  WIND   - DIRECTION AND SPEED IN MPH
  PRES   - MEAN SEA LEVEL PRESSURE IN INCHES OF HG
  WCI    - WIND CHILL INDEX
  VSB    - VISIBILITY IN MILES
  HX     - HEAT INDEX
  TC     - TEMPERATURE IN CELSIUS
  VRB    - VARIABLE WIND DIRECTION
  N/A    - NOT AVAILABLE



USA.gov is the U.S. government's official web portal to all federal, state and local government web resources and services.